User: anonymous   Login
Location: Arroyo Grande
(40.2671°N, 4.2512°W)
Time: 00:14:50
(UTC+00:00)
Language:

RESURS DK-1 - Orbit

View from above orbital plane
View from above orbital plane
View from above satellite
View from above satellite

Ground track
Ground track

The orbit data is extracted from the following two-line orbital elements,

1 29228U 06021A   23155.81365300  .00001995  00000-0  14800-3 0  9994
2 29228  69.9358 310.1593 0007396 249.2280 110.8090 15.04815949935382
Epoch (UTC): 04 June 2023 19:31:39
Eccentricity: 0.0007396
inclination: 69.9358°
perigee height: 547 km
apogee height: 557 km
right ascension of ascending node: 310.1593°
argument of perigee: 249.2280°
revolutions per day: 15.04815949
mean anomaly at epoch: 110.8090°
orbit number at epoch: 93538

The dashed part of the orbit path shows where the satellite is in the earth's shadow,  

DLR